Tracking 20621 objects as of 1-Apr-2020
HD Live streaming from Space Station
objects crossing your sky now

DELTA 1 DEB

Track DELTA 1 DEB now!
10-day predictions


NORAD ID: 10306
Int'l Code: 1977-065DC
Perigee: 535.2 km
Apogee: 1,580.6 km
Inclination: 29.1 °
Period: 106.2 minutes
Semi major axis: 7428 km
RCS: 0.0051 m2 (small)
Launch date: July 14, 1977
Source: United States (US)
Launch site: AIR FORCE EASTERN TEST RANGE (AFETR)

Note: This is SATELLITE DEBRIS
aabbcc
Your satellite tracking list
Your tracking list is empty




NASA's NSSDC Master Catalog

Two Line Element Set (TLE):
1 10306U 77065DC  20092.09139956  .00000066  00000-0 -15683-4 0  9990
2 10306  29.1104  25.3882 0703566 238.6591 114.3255 13.55863114 82095
Source of the keplerian elements: AFSPC